Regional Weather Roundup
Issued by NWS

Home | Current Version | Previous Version | Text Only | Print | Product List | Glossary On
Versions: 1 2 3 4 5 6 7 8 9 10 11 12 13 14 15 16 17 18 19 20 21 22 23 24 25 26 27 28 29 30 31 32 33 34 35 36 37 38 39 40 41 42 43 44 45 46 47 48 49 50
586
ASUS43 KLSX 230107
RWRMO
WEATHER SUMMARY FOR MISSOURI
NATIONAL WEATHER SERVICE SPRINGFIELD MO
800 PM CDT WED MAR 22 2017

NOTE: "FAIR" INDICATES FEW OR NO CLOUDS BELOW 12,000 FEET WITH NO
       SIGNIFICANT WEATHER AND/OR OBSTRUCTIONS TO VISIBILITY.
       CURRENT SKY AND/OR WEATHER CONDITIONS ARE NOT AVAILABLE FOR
       CHILLICOTHE AND FARMINGTON.

MOZ001>031-035>038-043-044-053-054-230200-
...NORTHERN AND WESTERN MISSOURI...

CITY           SKY/WX    TMP DP  RH WIND       PRES   REMARKS
KANSAS CTY INT CLOUDY    53  26  35 SE15      30.21F
KANSAS C DTWN  CLOUDY    55  24  30 E14G22    30.20F
LEE`S SUMMIT   CLOUDY    53  26  35 E17       30.22S
ST JOSEPH      CLOUDY    51  28  41 E13G23    30.22F
CHILLICOTHE      N/A     46  24  42 E6        30.30S
KIRKSVILLE     CLOUDY    44  16  32 SE13      30.32F

$$
MOZ066>068-077>081-088>096-101>105-230200-
...SOUTHWEST MISSOURI...

CITY           SKY/WX    TMP DP  RH WIND       PRES   REMARKS
SPRINGFIELD    CLOUDY    57  32  38 SE16G23   30.20S
JOPLIN         CLOUDY    55  37  50 SE12      30.18S
BRANSON        CLOUDY    54  34  47 SE13      30.23S

$$
MOZ032>034-039>042-045>050-055>058-069>072-230200-
...CENTRAL MISSOURI...

CITY           SKY/WX    TMP DP  RH WIND       PRES   REMARKS
COLUMBIA       PTCLDY    47  22  37 E8        30.31R
JEFFERSON CITY CLOUDY    51  22  31 E9        30.31S
ROLLA          CLEAR     47  23  38 E12       30.29R
SEDALIA        CLOUDY    52  24  33 E10G22    30.26F
WHITEMAN AFB   CLOUDY    52  25  35 E14       30.23F
WARRENSBURG    CLOUDY    52  27  37 E16G23    30.23F
OSAGE BEACH    CLOUDY   N/A N/A N/A E12       30.27S

$$
MOZ051-052-059>065-230200-
...EAST CENTRAL MISSOURI...

CITY           SKY/WX    TMP DP  RH WIND       PRES   REMARKS
ST LOUIS INTL  MOCLDY    47  17  30 E10       30.37S
SPIRIT OF STL  CLEAR     46  17  31 E7        30.35S
ST CHARLES     CLEAR     46  14  27 MISG      30.36F

$$
MOZ072>076-082>087-097>100-106>115-230200-
...SOUTH CENTRAL AND SOUTHEAST MISSOURI...

CITY           SKY/WX    TMP DP  RH WIND       PRES   REMARKS
CAPE GIRARDEAU CLEAR     48  26  42 NE10      30.34S
FARMINGTON     CLEAR     43  26  51 E7        30.33S
POPLAR BLUFF   CLEAR     50  32  50 NE7       30.32R
WEST PLAINS    CLOUDY    56  29  35 SE7       30.27R

$$




USA.gov is the U.S. government's official web portal to all federal, state and local government web resources and services.